Theta_e
314 313 313 314 318 321 323 321 318 322 327 325 319 320 325 319 315 322 321 319 328 330 331 336 329 325 328 336 346 350 347 354 357 357 358 356 354 354 352 352 352 351 349 348 349 349 350 351 351 351 351 350 349 348 348 349 350 351 351 352 352 350 350
315 314 314 316 316 318 320 316 318 326 326 325 325 320 320 321 321 325 321 318 324 324 324 336 336 326 326 331 339 347 349 352 356 357 356 355 355 353 353 353 351 351 349 348 349 350 350 351 351 352 352 351 351 349 349 350 350 350 352 351 351 351 349
315 314 316 319 317 316 317 315 317 323 320 320 325 320 318 321 320 321 322 321 321 320 325 341 346 341 343 343 339 342 350 352 355 356 355 355 355 354 354 354 352 351 350 348 349 350 350 351 351 352 353 352 352 350 350 350 350 350 351 352 352 351 350
314 315 316 316 315 314 315 316 316 320 319 317 321 322 321 323 321 321 324 323 321 326 338 348 352 353 354 352 346 341 343 352 355 354 355 355 354 355 354 353 354 352 350 350 349 349 351 351 351 352 353 353 353 353 352 350 351 350 351 352 352 352 350
316 316 315 315 314 314 314 314 314 316 318 318 319 320 321 322 324 324 322 321 323 334 348 351 352 353 352 353 350 343 341 349 354 354 354 353 353 354 353 353 353 352 351 351 349 350 351 351 352 353 353 354 353 354 353 351 351 351 350 351 352 352 351
315 316 315 314 315 315 314 314 315 316 318 318 316 319 321 321 322 323 322 320 322 330 340 347 349 350 350 350 348 346 345 347 351 353 353 354 353 353 353 352 353 353 353 351 350 350 350 352 353 353 353 354 354 354 354 353 352 351 351 351 352 352 352
315 314 315 315 316 317 315 315 316 315 316 317 316 319 323 320 320 326 326 321 322 326 332 343 348 347 349 347 344 346 346 347 352 352 352 352 353 352 352 353 352 353 352 351 352 351 349 351 353 353 353 353 354 355 355 354 353 353 351 351 350 352 352
316 313 316 317 316 316 317 315 314 314 313 314 316 319 321 323 325 328 328 323 323 326 330 339 345 346 348 346 343 343 344 345 348 352 355 353 351 352 352 351 353 353 352 352 352 351 351 352 352 353 353 353 353 354 354 354 354 353 353 351 351 351 351
316 317 323 324 318 314 314 315 313 314 313 313 317 320 324 329 329 325 325 328 327 325 328 340 345 345 346 344 341 341 340 341 343 346 353 355 353 354 353 352 352 353 353 355 353 352 352 352 353 354 354 353 353 353 354 355 355 354 353 353 351 351 350
318 322 325 324 318 314 313 313 312 313 313 311 315 319 325 332 329 323 324 329 326 321 328 343 345 345 346 344 340 339 339 338 339 341 344 349 351 353 354 354 355 355 355 356 354 353 353 353 353 354 354 353 353 353 354 355 355 355 355 353 353 351 350
320 320 319 317 315 313 312 312 311 312 312 312 314 317 321 326 324 324 328 329 321 318 327 344 347 346 347 346 341 338 338 336 336 337 339 341 343 345 346 347 351 357 360 359 358 354 353 354 354 354 355 354 354 354 353 354 355 356 355 355 354 353 351
317 316 315 314 313 312 311 311 311 311 312 313 314 315 317 318 319 325 335 332 319 317 330 344 347 347 347 347 343 338 336 334 333 333 334 335 336 339 340 340 343 347 351 356 361 357 354 354 353 354 355 354 354 354 353 354 355 356 356 356 355 355 353
314 313 313 313 313 312 311 312 312 311 312 312 313 314 313 315 317 321 329 329 320 323 338 343 344 345 344 344 343 338 333 333 331 331 331 332 332 333 335 336 339 340 340 344 349 351 353 354 354 355 354 355 355 355 354 354 355 356 357 357 357 356 355
313 312 313 313 312 312 311 311 312 311 311 311 312 313 312 313 316 317 321 325 325 332 342 343 340 340 338 339 341 338 333 332 331 330 330 329 329 331 331 332 334 335 336 337 339 341 344 345 349 354 356 356 356 355 354 354 355 357 358 358 358 358 357
315 313 313 313 312 313 313 313 313 311 312 312 311 312 312 315 318 316 319 328 334 336 338 339 337 335 333 334 336 336 334 331 330 329 329 329 328 328 328 329 330 331 331 332 334 337 339 340 343 346 350 354 357 356 355 355 355 357 359 360 360 360 359
317 314 314 313 313 314 313 312 313 312 312 313 312 313 318 322 323 323 328 337 340 335 332 333 333 331 330 331 332 333 332 331 330 328 328 329 327 326 326 328 328 327 327 329 331 333 335 338 340 341 343 349 354 356 356 356 355 357 359 361 362 361 361
318 315 315 315 314 316 316 314 316 318 319 320 320 322 325 326 328 333 337 336 332 329 327 327 328 329 330 330 328 329 331 331 330 327 326 326 325 325 325 327 328 327 326 327 329 330 333 336 338 339 342 346 350 353 356 357 355 356 357 359 361 362 362
318 316 316 317 318 318 317 316 322 326 325 325 326 326 326 325 326 329 330 327 325 325 324 324 325 328 329 327 325 326 328 329 329 327 324 325 324 323 323 324 327 327 326 326 328 328 330 333 335 338 341 342 344 347 351 355 357 357 356 357 358 359 361
318 318 318 319 319 317 313 315 325 327 324 325 327 326 323 322 323 324 324 324 323 323 322 322 323 325 326 324 322 322 324 325 327 327 325 324 323 321 321 322 324 325 325 325 326 327 329 330 332 335 337 338 339 342 346 350 354 358 357 356 357 357 359
318 318 318 318 319 316 312 315 324 326 324 324 327 327 324 321 321 322 322 322 321 320 320 320 320 322 324 323 321 319 320 322 324 325 325 324 323 320 319 320 322 322 323 323 324 326 327 327 330 332 333 334 336 339 342 345 349 354 356 356 357 357 357
316 317 318 317 316 314 313 318 323 323 322 322 325 328 326 320 318 320 321 320 320 319 319 319 319 320 324 328 325 318 318 320 321 324 325 324 323 322 320 320 320 321 321 322 324 325 325 326 328 329 330 331 333 335 338 342 346 351 354 356 356 356 357
316 316 317 317 315 315 319 323 323 318 317 318 321 327 327 320 316 319 320 319 319 319 318 318 318 320 327 334 329 319 316 318 319 322 325 324 322 322 321 320 320 320 320 322 323 324 324 325 326 327 328 331 332 333 337 340 343 347 351 354 355 356 356
316 315 316 316 314 316 322 325 321 316 316 319 321 325 326 321 316 317 318 318 318 318 318 318 318 321 328 330 324 317 316 318 317 319 323 324 322 322 321 320 320 319 320 321 322 322 323 324 324 325 327 329 331 333 335 338 340 343 348 352 354 355 355
317 316 316 315 314 317 320 321 318 316 318 322 323 325 324 320 317 316 317 318 318 319 318 317 318 320 322 321 318 316 316 316 317 319 320 322 322 322 321 321 320 320 320 321 322 322 322 323 324 325 326 328 330 332 333 335 337 340 344 348 351 354 355
316 316 316 316 317 318 317 316 316 316 319 323 324 323 320 318 316 317 317 317 318 318 318 318 318 318 318 316 316 315 315 315 317 318 318 319 321 322 322 321 321 320 320 321 322 321 321 322 323 324 325 327 328 330 332 333 335 337 341 343 346 350 354
317 317 316 316 318 316 313 314 316 317 319 322 321 318 318 317 317 317 317 316 317 317 316 316 316 316 315 314 314 314 314 315 316 316 317 318 319 321 322 322 321 321 320 320 321 322 321 322 323 324 325 326 328 329 330 332 334 335 337 339 342 346 350
317 317 317 317 318 316 313 314 317 318 319 320 318 317 317 317 317 317 316 315 316 316 315 314 314 314 314 313 314 314 314 314 315 316 317 317 318 320 322 322 321 321 321 320 321 322 321 322 323 324 324 325 327 328 330 332 334 335 336 338 341 345 349
316 317 318 317 317 316 314 314 317 318 318 317 316 315 315 315 315 315 314 314 315 315 314 313 313 313 313 313 313 313 313 314 315 315 316 317 318 319 321 321 321 321 321 321 321 321 321 321 322 324 325 326 327 328 330 332 333 334 336 338 341 345 349
316 317 317 317 317 317 315 315 316 316 315 315 313 313 313 313 313 313 313 313 314 314 313 313 313 313 313 313 313 313 313 313 314 314 315 316 317 319 320 320 321 321 321 321 321 320 320 321 322 324 325 326 327 328 330 332 334 335 338 340 342 347 353
314 314 314 315 316 316 314 313 314 314 313 313 312 312 312 312 311 312 312 312 313 313 313 313 312 312 313 312 312 312 312 312 313 314 315 316 316 318 319 319 320 321 321 321 321 320 320 320 322 324 325 326 327 328 330 333 336 339 341 343 347 352 357
312 312 314 315 314 313 311 311 312 312 311 312 311 311 311 310 310 311 311 312 312 312 312 312 312 312 312 312 312 312 311 312 313 313 314 316 316 317 317 318 320 321 321 321 321 320 319 320 321 323 325 326 327 328 331 334 338 342 345 348 352 355 356
312 312 314 314 312 310 311 311 310 310 311 311 310 310 310 309 310 310 310 310 312 312 311 312 311 311 311 311 311 311 311 312 312 312 313 315 315 315 316 317 319 321 321 321 321 319 319 319 321 323 325 325 326 327 330 334 338 342 346 351 354 355 354
312 312 312 312 311 311 312 312 310 309 310 310 310 310 310 309 309 310 309 309 310 310 310 311 310 310 310 310 311 311 311 311 311 311 312 313 314 315 315 316 318 320 321 321 320 319 319 319 321 324 325 325 324 326 329 333 336 338 343 349 354 354 353
312 313 314 313 311 311 312 311 310 310 310 310 310 310 310 309 309 309 309 309 308 308 309 309 310 310 310 310 310 310 310 310 310 311 312 313 314 314 315 316 317 320 321 321 319 318 318 319 321 324 325 323 323 326 328 331 333 334 337 344 351 353 354
313 313 314 315 313 311 310 310 310 311 311 311 311 310 310 309 308 308 308 308 308 308 308 308 309 310 310 309 310 310 310 310 310 310 312 312 313 314 315 315 317 320 321 320 318 317 318 319 322 324 324 323 323 325 327 329 331 332 334 340 348 353 353
313 312 314 314 313 311 310 310 312 312 310 311 311 310 309 308 307 307 307 308 308 308 308 308 309 309 309 309 309 309 309 310 310 311 312 312 313 314 315 317 319 321 321 320 317 316 317 320 323 324 323 322 323 325 326 329 331 331 333 339 347 352 353
312 314 314 313 312 312 311 310 311 310 308 309 310 309 308 308 307 307 307 307 307 308 308 308 308 308 309 309 309 309 310 310 311 311 312 313 315 316 317 318 320 321 321 319 316 316 317 321 323 323 322 322 323 324 326 329 330 332 335 340 347 352 353
Wind_Speed
6 12 11 5 3 0 3 2 2 5 4 6 3 2 1 4 3 3 1 1 4 4 6 8 7 10 10 12 17 18 18 18 15 14 15 16 15 16 17 17 18 19 20 24 26 30 32 33 36 38 40 41 42 41 42 42 42 42 43 43 43 42 42
9 14 10 5 9 6 3 2 4 5 1 4 3 0 1 3 3 3 1 2 4 4 4 7 8 9 9 5 11 17 16 15 16 15 16 18 18 18 19 19 18 17 19 23 27 30 33 36 38 40 41 42 42 42 43 43 41 42 43 43 43 42 41
10 12 9 6 10 10 5 2 5 1 3 1 1 2 2 2 2 3 3 1 2 2 3 9 13 12 13 13 8 14 16 14 15 16 17 19 18 16 16 15 15 15 17 23 28 29 33 37 38 40 41 40 40 41 42 43 43 44 43 42 42 41 42
7 7 7 4 8 11 8 6 5 3 2 2 0 2 4 3 3 3 3 2 2 2 4 9 14 14 15 17 13 9 17 16 15 16 16 17 16 15 14 14 15 16 18 25 30 31 33 37 37 38 39 39 39 40 40 42 43 43 42 42 41 41 42
4 3 5 4 4 7 7 7 7 6 3 0 0 1 1 3 3 3 2 1 2 3 4 7 13 14 14 17 18 10 13 17 17 17 16 16 16 16 15 15 16 17 18 24 30 32 33 35 36 36 38 38 38 38 39 41 41 41 41 42 41 41 41
2 2 2 5 5 4 2 6 6 6 5 3 2 3 3 1 2 3 5 3 2 4 5 6 10 12 14 17 19 16 8 9 15 17 17 17 16 17 17 16 17 16 16 21 27 30 31 32 33 34 36 37 37 37 38 40 40 41 42 42 42 41 40
4 5 5 2 4 3 7 9 7 6 6 5 3 2 4 4 2 2 1 3 2 3 6 6 8 11 14 16 18 18 16 10 4 8 14 16 16 17 17 17 17 16 16 21 26 27 29 30 32 34 35 36 37 38 38 38 39 41 42 42 43 42 41
5 6 3 4 8 8 7 7 8 7 6 6 3 2 1 2 2 3 2 1 2 5 9 7 8 11 13 16 19 19 18 17 15 9 4 10 14 16 17 17 16 14 15 19 20 21 24 27 30 33 34 35 36 36 37 38 39 41 41 42 41 41 41
6 4 4 4 6 8 4 3 6 8 9 10 7 3 3 2 1 2 0 2 3 6 9 9 9 12 14 16 19 19 18 18 18 17 12 4 4 7 11 14 15 14 14 15 15 19 23 25 28 31 32 34 35 36 36 37 39 40 40 40 40 41 41
2 3 3 4 5 6 3 2 5 8 10 11 7 4 3 2 2 4 1 3 4 8 10 12 11 11 13 15 17 17 17 18 18 18 17 13 10 7 4 1 5 8 12 13 15 19 23 25 27 30 32 33 34 35 36 36 37 38 40 40 39 40 40
3 4 4 4 6 7 8 8 7 6 8 8 5 2 2 2 4 5 3 1 7 11 11 12 12 11 10 11 14 15 15 17 18 17 17 16 14 13 14 13 10 6 1 5 10 17 24 27 29 30 32 34 34 35 36 36 37 37 38 39 39 39 39
3 3 5 7 8 8 10 13 11 7 6 6 5 3 5 5 5 5 5 3 8 10 9 10 11 10 8 8 10 12 13 15 15 16 17 19 18 17 17 16 16 15 13 9 5 4 12 20 26 29 30 32 35 36 36 36 36 37 38 38 39 39 38
5 5 7 9 9 9 8 11 13 11 7 5 4 4 7 7 4 6 7 6 6 6 7 8 8 8 8 7 7 9 12 13 14 16 19 20 20 19 19 18 16 16 16 14 13 12 11 6 7 16 23 26 29 31 34 34 34 35 37 38 38 38 38
5 5 6 8 9 10 9 9 11 13 11 7 5 5 8 9 8 8 7 6 4 3 5 6 6 7 7 6 7 9 12 13 14 16 18 18 18 18 18 17 15 15 15 14 15 17 20 21 17 9 7 15 21 24 26 29 31 32 35 37 37 37 38
5 5 5 7 8 9 10 10 9 11 13 11 6 5 6 6 7 8 7 4 2 3 6 7 6 7 7 9 10 10 10 11 13 15 15 15 16 17 17 17 16 16 16 15 15 17 19 20 21 20 17 11 11 21 23 23 24 26 29 32 34 36 37
4 4 6 8 8 9 11 10 7 8 10 9 6 3 2 3 4 5 5 3 2 5 7 7 7 8 9 10 11 10 9 10 12 14 14 13 14 16 16 16 16 17 17 15 15 17 20 21 20 21 23 21 12 10 21 24 23 24 27 30 32 35 36
2 2 4 7 7 7 7 5 3 4 4 5 5 3 5 5 2 0 1 1 4 6 7 8 9 9 8 8 8 9 9 10 11 13 13 12 13 14 14 14 15 15 15 15 17 19 20 20 21 21 20 19 19 13 8 20 27 29 30 33 34 36 36
1 0 3 5 4 4 5 2 2 3 3 6 5 3 5 6 4 2 1 3 5 6 6 7 8 7 6 7 7 8 8 9 10 11 12 11 11 12 13 13 14 14 15 18 21 22 23 22 22 21 19 18 18 16 10 11 23 31 33 32 33 33 33
2 2 4 3 3 5 4 1 3 3 4 5 4 4 5 6 6 5 5 6 7 7 7 6 5 5 4 5 8 10 9 8 8 8 10 10 11 12 13 12 12 13 17 21 23 25 26 25 23 21 21 23 23 17 13 10 13 23 32 34 34 33 33
1 2 3 2 5 5 7 5 2 3 4 4 3 3 3 4 5 4 4 5 7 8 9 8 7 7 4 2 7 11 10 8 7 7 8 9 9 10 12 13 13 14 17 19 21 23 24 23 22 24 25 25 25 22 16 13 13 15 22 29 32 34 35
2 3 3 4 6 8 8 5 1 3 3 4 2 1 1 2 4 5 4 5 7 8 10 11 12 11 5 4 3 10 13 11 8 6 6 7 9 10 13 15 16 17 18 19 20 22 23 22 22 27 30 28 25 24 20 14 14 16 18 23 28 30 32
2 3 3 3 5 6 4 2 1 3 4 5 3 3 2 1 4 5 4 5 7 7 8 10 12 11 5 2 1 8 13 12 10 8 6 7 10 11 13 16 18 18 20 20 20 22 23 23 23 25 28 29 27 23 20 17 15 16 17 21 26 28 30
1 3 3 4 6 5 3 2 3 4 5 6 3 1 1 0 4 6 5 5 6 6 6 8 8 6 4 3 3 8 13 13 11 9 8 9 12 13 14 16 17 18 20 19 20 22 23 25 27 25 23 26 26 21 19 19 18 18 18 18 19 23 28
4 4 4 4 4 3 1 2 4 5 6 3 2 1 2 0 3 6 5 5 6 5 5 5 4 3 3 5 7 9 13 14 13 12 10 10 12 14 15 17 18 17 17 17 19 21 22 25 28 25 22 22 22 20 20 20 18 18 19 19 18 20 22
6 6 5 4 4 2 1 4 6 7 5 2 2 3 2 1 4 6 4 5 6 6 5 4 2 1 3 7 9 11 12 13 13 15 16 15 14 13 14 17 20 19 17 16 17 19 21 24 25 25 23 21 20 21 21 19 18 19 21 22 22 22 22
4 4 4 5 4 1 2 6 7 5 2 1 2 2 2 2 5 5 3 4 5 5 6 5 4 4 6 8 11 11 11 12 12 14 17 18 17 14 12 14 18 20 19 17 17 19 21 22 22 24 24 21 21 21 21 21 24 24 24 24 25 25 26
2 2 3 4 3 1 3 5 5 2 1 2 3 3 2 3 4 3 3 3 4 5 6 7 7 8 8 9 11 11 11 11 12 13 16 18 18 17 14 14 17 19 19 18 17 19 21 21 21 22 22 22 23 23 23 26 30 29 27 26 26 26 27
2 2 3 3 2 2 2 1 1 2 2 2 3 4 3 4 3 3 3 4 4 5 6 8 9 9 9 8 10 11 12 11 11 13 16 18 20 19 17 17 18 18 19 20 20 19 21 22 21 21 20 21 23 25 28 31 32 31 29 27 26 25 25
3 4 5 3 3 3 4 3 3 4 4 3 3 3 4 4 3 3 4 5 5 6 7 9 9 9 9 9 9 10 12 11 11 13 17 20 21 21 20 20 20 19 19 21 21 21 22 22 22 21 21 21 22 26 31 34 33 32 31 28 26 25 24
3 5 6 5 3 3 4 3 3 3 3 4 4 4 4 4 5 5 5 5 6 6 7 8 8 8 9 10 10 10 11 12 13 15 17 20 22 22 22 22 22 20 19 20 21 21 23 24 23 22 22 22 24 27 31 32 32 32 31 28 25 24 24
2 3 4 3 2 4 5 4 3 3 3 4 4 4 5 5 6 7 6 6 7 6 6 7 9 9 10 10 10 10 10 11 12 13 15 19 22 23 24 24 23 21 19 19 20 21 23 25 24 23 24 25 26 28 29 29 30 31 29 26 24 25 26
3 4 6 4 3 5 5 3 2 3 4 5 5 5 6 7 7 7 7 7 6 6 6 7 9 10 10 10 11 10 9 10 10 12 16 19 22 25 27 27 24 20 17 18 20 21 24 26 25 23 24 26 29 30 28 26 26 27 27 25 24 25 27
4 6 6 4 4 6 4 2 4 4 3 5 6 7 7 8 8 8 9 8 8 8 8 7 8 11 11 10 10 11 11 10 10 13 18 22 24 25 27 28 26 21 17 18 19 21 25 27 26 24 24 27 30 30 28 26 25 26 27 26 24 25 25
4 5 4 2 2 5 5 5 6 6 4 5 7 7 7 8 8 9 10 10 10 11 11 10 9 10 11 10 10 12 11 11 13 17 19 22 25 26 27 28 28 24 18 17 19 21 24 27 26 24 24 28 31 30 28 27 26 26 28 28 25 25 23
5 6 5 5 4 5 6 6 6 6 5 5 7 7 7 8 9 9 10 11 10 10 12 13 12 10 10 12 13 12 13 16 20 21 21 22 24 26 27 27 26 24 19 17 19 21 24 27 26 24 25 29 32 32 30 29 29 28 29 28 25 23 22
5 5 6 6 5 5 6 6 6 6 5 5 6 7 7 7 9 11 11 11 11 10 10 13 15 15 14 15 16 14 15 20 23 23 24 25 25 26 27 25 23 22 19 18 20 21 24 26 26 25 26 30 33 32 32 32 31 30 28 27 25 22 20
5 5 5 6 6 6 6 5 5 6 6 6 6 7 9 10 12 14 13 11 12 13 10 11 15 18 18 18 19 18 18 20 23 24 25 26 25 25 25 24 22 21 19 20 21 22 23 24 25 26 26 29 31 33 34 34 33 30 27 25 24 23 20
Wind_Direction
20 3 326 319 47 313 280 46 119 219 193 134 125 269 225 100 93 272 252 229 289 310 297 293 272 253 237 207 209 209 206 202 187 187 193 192 194 193 191 192 193 193 191 192 192 188 186 184 184 186 187 188 188 188 189 190 191 192 193 196 198 200 201
351 344 333 12 36 36 74 31 274 268 349 100 113 67 331 77 114 269 284 186 287 313 288 312 324 297 296 275 223 217 209 194 186 191 193 194 195 193 193 193 191 191 191 193 193 190 188 186 186 188 189 189 190 190 190 190 191 193 195 197 199 201 202
336 341 8 32 10 18 58 295 283 330 58 49 64 136 185 108 140 256 298 258 284 323 309 344 356 347 337 335 285 230 212 194 190 195 193 195 196 193 193 192 189 191 191 193 193 191 191 189 188 189 189 189 190 191 192 192 193 195 196 197 199 201 202
339 344 27 32 344 350 9 1 344 22 111 163 203 188 168 139 165 208 302 330 21 340 324 356 2 355 347 347 336 258 215 201 194 195 194 193 192 190 191 189 189 191 192 193 193 191 190 190 190 190 189 190 191 192 193 194 195 196 196 198 200 201 203
13 44 25 14 345 332 352 13 11 2 351 139 227 282 155 135 154 162 224 258 36 335 317 7 8 358 356 358 352 319 230 206 198 195 192 191 189 189 189 188 190 193 192 193 194 193 191 190 190 189 189 191 192 192 193 194 195 195 196 198 200 202 203
23 83 327 319 314 295 21 40 21 5 357 18 36 321 318 56 133 171 193 185 60 341 327 17 18 4 3 6 3 350 307 231 207 197 191 188 189 189 187 187 190 192 192 192 193 193 192 190 190 190 190 191 192 192 194 195 195 195 196 198 200 202 204
266 257 246 304 2 35 72 54 19 7 13 25 37 300 317 345 330 292 220 149 158 305 335 14 29 16 9 11 12 6 357 349 297 214 199 189 187 189 187 187 191 191 191 193 192 193 192 190 190 190 190 192 193 194 194 194 196 197 198 199 200 202 203
279 266 226 88 60 59 62 36 10 9 6 355 322 257 319 359 353 358 348 220 228 322 342 1 25 25 19 16 15 11 8 9 8 357 261 204 197 195 188 186 191 189 186 189 191 193 193 191 191 191 192 193 194 195 195 194 196 198 198 200 201 202 203
326 340 11 28 33 38 42 8 2 354 349 354 343 326 37 44 38 46 350 232 278 323 336 351 15 27 27 22 17 14 15 14 11 12 8 332 236 211 201 197 194 184 179 183 189 194 195 194 194 194 194 195 195 195 195 196 197 197 198 200 201 202 204
302 320 345 322 326 349 343 330 1 347 348 4 359 337 20 37 347 359 289 229 300 326 342 352 6 26 31 25 19 16 19 17 13 16 17 15 22 30 22 273 213 191 184 186 189 192 194 195 196 196 197 197 197 197 197 196 196 197 198 199 200 202 203
207 232 259 289 309 319 316 321 346 354 345 355 6 356 343 325 335 325 252 214 343 336 342 349 357 20 31 26 21 16 17 18 16 16 16 16 25 36 38 32 22 16 352 212 202 198 197 197 197 197 198 198 197 198 198 197 196 196 197 198 199 201 203
258 270 295 316 323 318 315 318 326 342 344 347 8 353 300 317 342 297 267 3 354 329 335 350 357 15 29 32 27 18 15 18 18 17 16 16 19 25 33 34 30 27 21 7 348 234 210 207 205 202 200 200 199 199 199 198 196 196 196 197 199 200 202
314 327 330 329 323 312 312 314 314 321 328 327 332 307 295 307 297 261 280 329 333 321 344 355 4 21 27 32 36 28 21 17 18 21 19 16 15 18 23 26 27 28 24 17 13 16 18 357 249 221 213 209 206 203 202 199 197 196 196 196 198 200 201
318 331 325 317 314 310 311 311 308 312 313 304 295 287 289 290 273 268 297 325 328 354 351 341 7 32 30 28 36 38 28 15 16 26 24 16 13 12 15 19 22 24 21 17 13 16 21 18 7 344 267 232 219 212 207 204 201 198 196 196 197 199 202
316 322 324 314 313 312 311 312 312 310 307 304 295 273 277 287 287 303 336 346 325 356 346 339 11 35 38 36 33 38 35 16 16 27 26 18 13 9 8 11 15 17 15 13 12 13 13 10 8 7 0 334 245 218 211 207 204 198 195 196 198 200 204
295 319 339 322 317 317 309 304 305 299 295 300 298 284 323 331 297 316 357 3 311 330 340 350 12 25 37 41 33 33 34 23 24 26 21 18 14 8 6 7 10 11 8 6 7 7 6 4 3 1 0 2 349 246 216 208 203 199 197 197 199 203 205
265 325 334 320 328 329 298 278 301 312 310 329 334 17 33 7 329 85 75 314 325 335 343 358 8 13 28 40 37 36 30 22 26 24 17 13 10 7 8 6 5 5 1 0 0 359 360 0 358 353 353 2 9 356 261 219 207 202 203 202 201 204 206
189 149 356 338 333 297 263 222 39 3 31 30 14 49 43 10 10 44 9 332 344 345 351 2 358 355 17 40 44 47 42 32 25 17 11 7 2 4 8 9 8 0 353 354 354 353 355 355 351 351 352 355 1 8 351 255 221 208 207 209 208 208 209
190 124 46 348 261 248 268 21 40 6 36 50 61 91 61 24 17 10 354 350 349 341 344 353 347 335 355 53 50 42 45 47 34 16 6 1 358 359 1 6 10 2 353 351 349 347 350 350 348 350 352 349 346 353 1 327 262 221 209 209 210 211 212
211 110 114 223 247 282 306 313 339 15 16 21 54 86 45 17 9 356 344 340 342 343 340 342 345 328 290 144 66 37 31 35 36 30 10 354 353 357 355 356 0 359 354 349 344 341 341 344 350 352 349 346 341 338 340 339 315 266 228 215 212 212 213
196 167 191 244 294 303 297 291 345 45 4 342 352 222 271 355 357 347 345 341 342 348 343 340 340 333 301 185 93 28 19 12 11 18 11 354 351 350 347 349 352 352 350 348 343 338 336 343 355 355 347 342 340 334 329 331 325 301 266 239 226 220 218
178 187 228 273 285 278 257 238 1 22 348 319 299 239 229 358 340 330 341 344 339 345 350 346 340 338 335 204 260 6 4 355 353 358 355 353 354 346 340 343 347 348 347 348 345 339 337 342 352 352 346 340 336 331 330 329 323 310 287 260 244 235 228
171 177 214 236 246 248 227 248 310 343 324 312 313 248 222 341 318 315 329 334 332 338 349 352 351 351 344 287 304 352 349 340 343 347 340 341 344 341 338 338 341 345 345 343 343 343 341 341 344 347 344 337 331 326 328 327 318 308 299 283 266 254 244
229 221 228 235 245 248 229 279 310 311 303 334 38 259 252 320 305 304 316 323 321 325 338 353 8 13 328 299 312 336 335 329 331 335 335 336 333 332 335 335 335 340 343 341 341 342 339 337 340 343 340 333 326 321 322 321 312 301 297 296 293 283 269
239 232 235 255 261 251 331 324 309 299 304 16 114 228 242 279 282 286 309 326 321 323 332 339 336 288 289 298 310 321 324 323 325 327 328 328 326 323 324 328 333 336 339 340 338 335 334 336 340 342 339 331 323 319 317 311 302 298 298 298 297 294 289
256 233 232 259 261 236 359 324 306 293 280 206 216 239 235 236 260 276 307 327 324 322 322 318 302 293 300 306 311 315 318 317 318 322 324 323 322 321 317 324 333 333 332 333 332 330 333 337 340 341 336 326 319 316 310 302 300 300 299 297 296 294 292
257 248 244 252 254 304 358 344 328 317 202 237 289 321 294 264 285 312 315 315 318 317 314 309 304 306 310 311 309 309 310 310 308 314 321 319 316 316 317 324 330 330 328 326 325 327 331 333 338 342 335 323 318 314 305 303 306 304 299 295 293 292 290
160 207 232 220 211 261 306 342 276 267 271 285 326 344 322 307 321 326 315 307 300 301 305 303 301 304 305 305 306 305 306 308 308 311 315 315 313 313 315 321 327 328 325 321 321 326 330 331 337 341 335 323 315 309 306 309 309 305 300 297 291 288 287
197 215 238 239 220 244 259 242 237 266 292 314 345 349 320 308 306 309 311 302 291 292 294 293 294 299 300 302 305 306 306 307 308 309 310 309 310 311 312 317 322 323 320 317 318 324 329 332 335 338 336 325 310 305 309 313 311 305 302 298 292 286 285
267 257 258 258 252 275 290 281 268 282 297 318 344 342 315 302 302 302 298 287 285 288 288 287 290 292 296 301 303 303 305 306 305 306 305 305 308 310 311 313 315 317 317 316 317 322 328 331 333 334 335 327 313 308 312 314 312 308 302 295 290 286 285
303 285 262 231 231 286 293 289 292 304 307 317 333 326 307 301 300 296 291 287 286 285 284 288 292 291 294 300 301 300 301 300 301 302 301 302 306 307 307 308 309 311 314 315 317 321 325 327 329 330 331 328 320 316 315 314 313 310 301 290 286 286 287
208 247 253 244 257 273 265 253 290 313 313 312 315 310 301 298 295 292 293 292 288 287 287 287 290 292 294 292 293 296 296 293 296 301 299 299 301 303 303 303 304 305 308 313 316 319 320 322 324 325 326 328 326 323 319 315 314 312 303 292 286 288 289
249 265 268 282 303 298 282 278 296 294 286 295 303 302 297 296 294 292 292 289 285 284 285 284 286 289 290 288 289 291 291 290 292 294 295 295 295 296 299 300 299 298 302 309 313 314 316 319 321 322 324 327 328 327 323 318 316 315 310 302 295 293 293
261 254 234 218 272 284 277 273 278 275 273 290 296 293 291 293 296 296 296 292 286 282 280 278 280 283 284 287 289 286 285 287 288 287 289 290 290 291 294 296 294 292 295 305 309 310 314 319 320 319 322 327 329 329 326 321 318 314 310 306 301 297 296
236 227 212 197 208 246 259 256 256 261 271 282 281 278 282 289 292 295 294 290 288 285 278 273 271 274 279 284 285 285 284 285 285 285 283 282 284 286 289 290 289 287 292 302 305 308 317 322 319 316 320 327 331 331 327 322 318 313 308 304 299 296 296
235 231 217 201 200 231 248 247 245 252 260 265 267 273 279 282 286 289 287 282 281 280 277 273 272 272 275 280 281 281 282 282 282 283 281 278 278 280 282 283 282 282 289 300 304 309 319 322 317 315 320 328 332 330 326 323 319 313 307 300 294 293 294
221 230 212 192 204 230 243 245 243 246 253 262 273 284 287 287 291 291 288 284 284 282 280 279 276 273 274 275 275 274 275 277 279 280 280 279 278 277 279 281 280 280 286 297 302 308 317 321 317 314 319 328 332 330 327 326 322 314 306 298 292 292 293